Location: Elstree
(51.6403°N, 0.2969°W)
Time: 18:43:44
(UTC+00:00)

Cosmos 1066 Rocket - Pass Details

Date: 03 March 2021
Orbit: 799 x 894 km, 81.2° (Epoch: 16 April)

Event Time Altitude Azimuth Distance (km) Brightness Sun altitude
Rises 19:33:57 0° 348° (NNW) 3,431 7.7 -17.6°
Reaches altitude 10° 19:36:24 10° 352° (N) 2,505 6.9 -18.0°
Maximum altitude 19:42:03 63° 74° (ENE) 974 4.2 -18.8°
Enters shadow 19:45:45 23° 149° (SSE) 1,802 5.5 -19.4°
